Temperature
22 22 21 21 21 20 20 20 19 19 19 19 19 19 19 19 18 18 18 18 18 18 18 18 18 18 18 18 18 19 18 18 18 18 18 18 18 18 17 17 17 18 18
22 22 21 21 21 20 20 20 19 19 19 19 19 19 19 19 18 18 18 18 18 18 18 18 18 18 18 18 18 18 18 18 18 18 18 18 18 18 17 17 17 18 17
22 22 21 21 21 20 20 20 19 19 19 19 19 19 19 18 18 18 18 18 18 18 18 18 18 18 18 18 18 18 18 18 18 18 18 18 18 18 17 17 17 18 17
22 22 21 21 20 20 20 20 19 19 19 19 19 19 18 19 19 18 18 18 18 18 18 18 18 18 18 18 18 18 18 18 18 17 17 17 18 18 17 17 17 17 17
21 21 21 21 20 20 20 20 19 19 19 19 19 19 19 19 19 18 18 18 18 18 18 18 18 18 18 18 18 18 18 18 18 18 17 18 18 18 18 17 17 17 17
20 21 21 21 20 20 20 19 19 19 19 19 19 19 19 19 18 18 18 18 18 18 18 18 18 18 18 18 18 18 18 18 18 18 18 18 18 18 18 17 17 17 17
20 21 21 21 20 20 20 19 19 19 19 19 19 19 19 19 19 19 19 19 18 19 18 18 18 18 18 18 18 18 18 18 18 18 18 18 18 18 18 17 17 17 17
20 20 21 20 20 20 19 19 19 19 19 19 19 19 19 19 19 19 19 19 18 18 18 18 18 18 18 18 19 19 18 18 18 18 18 18 18 18 18 17 17 17 17
21 20 21 20 20 20 19 19 19 19 19 19 19 19 19 19 19 19 18 18 18 18 18 18 18 18 18 19 19 19 19 19 18 18 18 18 18 18 18 18 17 17 17
21 20 20 20 20 20 19 19 19 19 19 19 19 19 19 19 18 18 18 18 18 18 18 18 18 18 18 18 19 19 19 19 18 18 18 18 18 18 18 18 17 17 17
21 20 19 19 19 19 19 19 19 19 19 19 19 19 18 18 18 18 18 18 18 18 18 18 18 18 18 18 18 19 19 18 18 18 18 18 18 18 18 18 18 17 17
21 20 20 19 19 19 19 19 19 19 19 18 18 18 18 18 18 17 18 18 18 18 18 18 18 18 18 18 18 18 18 18 18 18 18 18 18 18 18 18 18 18 17
21 20 20 19 19 19 19 19 19 18 18 18 18 18 18 18 18 18 18 18 18 18 18 18 18 17 17 17 18 18 18 18 18 18 18 18 18 18 18 18 18 18 17
21 20 20 19 19 19 19 19 19 19 18 18 18 18 18 18 18 17 17 18 17 17 17 17 17 17 17 17 17 18 18 18 17 17 17 17 18 18 18 18 18 17 17
20 20 20 19 19 19 19 19 19 19 18 18 18 18 18 18 18 18 18 18 17 17 17 17 17 17 17 17 17 17 17 18 17 17 17 17 17 18 18 18 17 17 17
20 20 19 19 19 19 19 19 19 19 18 18 18 18 18 18 18 17 17 17 17 17 17 17 17 17 17 17 17 17 17 17 17 17 17 17 17 17 17 17 17 17 17
20 19 19 19 19 19 19 19 19 18 18 18 18 18 18 17 17 17 17 17 17 17 17 17 17 17 17 17 17 17 17 17 17 17 17 17 17 17 17 17 17 17 17
19 19 19 18 19 19 19 18 18 18 18 18 18 18 17 17 17 17 17 17 17 17 17 17 16 16 16 17 17 17 17 17 17 17 17 17 17 17 17 17 17 17 17
19 19 18 18 19 19 18 18 18 18 18 18 17 17 17 17 17 17 17 17 17 16 16 16 16 16 16 16 17 17 17 17 17 17 17 17 17 16 17 17 17 17 17
19 18 18 18 18 18 18 18 18 18 18 17 17 17 17 17 17 17 16 17 16 16 16 16 16 16 16 16 17 17 17 17 17 17 17 17 17 17 16 16 16 16 16
18 18 18 18 18 18 18 18 18 17 17 17 17 17 17 16 17 16 16 16 16 16 16 16 16 16 16 16 16 17 17 17 17 17 17 16 16 16 16 16 16 16 16
18 18 18 18 18 18 18 18 18 17 18 17 17 17 17 16 16 16 16 16 16 16 15 15 16 16 16 16 16 17 17 17 17 17 17 16 16 16 16 16 16 16 16
18 18 18 18 18 18 18 18 17 18 17 17 17 17 16 16 16 16 16 16 15 15 15 15 15 15 16 16 16 16 16 17 17 17 17 16 16 16 16 16 16 16 16
18 18 18 18 18 18 18 18 18 18 17 17 17 17 16 16 16 16 16 15 15 15 15 15 15 15 15 16 16 16 16 16 16 16 16 16 16 16 16 16 16 16 16
18 18 18 18 18 18 18 18 18 18 18 17 17 17 16 16 16 16 15 15 15 15 15 15 15 15 15 15 16 16 16 16 16 16 16 16 16 16 16 16 16 16 15
19 18 18 18 18 18 18 18 18 18 17 17 17 17 16 16 16 16 15 15 15 15 15 15 15 15 15 15 15 15 15 16 16 16 16 16 16 16 16 16 16 15 15
Wind_Speed
21 20 21 19 17 17 16 15 15 15 15 14 14 14 14 14 14 14 14 14 15 14 14 14 13 13 14 14 14 13 13 14 15 16 16 16 15 14 12 12 15 17 16
24 22 22 19 18 17 17 16 16 15 15 14 14 13 13 13 13 13 13 14 14 14 14 14 14 14 14 13 12 11 11 11 12 13 15 16 15 14 14 14 16 15 15
23 22 21 20 19 18 17 17 16 16 15 15 14 13 13 13 13 13 13 14 14 14 14 14 14 14 14 12 11 9 8 8 7 9 11 14 14 15 16 17 17 16 15
22 21 20 20 19 18 17 17 16 16 15 14 14 13 13 13 13 12 13 13 14 13 13 13 14 14 13 11 9 7 5 4 2 2 4 11 14 15 15 16 15 14 14
20 21 22 21 20 19 18 17 16 16 15 14 13 13 13 13 12 12 13 13 13 13 13 13 13 12 11 10 8 5 4 4 4 3 10 16 15 14 14 14 13 13 13
21 21 22 21 20 19 18 17 16 15 14 13 13 12 12 12 12 12 12 12 12 12 12 12 12 11 10 9 6 5 5 7 9 3 13 16 14 14 13 12 12 12 12
20 21 22 21 20 19 18 17 16 15 14 13 12 12 12 11 11 11 12 12 11 11 11 11 10 10 9 7 5 4 6 10 7 8 16 16 15 14 12 12 11 11 11
21 20 21 21 20 19 18 16 15 14 14 13 12 12 11 11 11 11 11 10 11 10 10 9 9 8 7 5 3 4 7 10 6 9 15 16 16 14 12 11 10 10 10
21 19 18 19 18 18 17 16 15 14 13 12 12 11 10 10 10 10 10 10 9 9 8 7 7 6 4 3 1 4 7 9 8 6 13 14 16 14 12 10 9 9 9
19 18 16 18 17 16 16 16 15 14 13 12 11 11 10 10 10 10 10 9 8 7 7 5 4 3 2 2 2 5 8 9 4 7 12 13 16 14 12 10 9 8 8
16 16 16 17 16 16 16 16 15 14 13 12 11 10 9 9 10 9 10 10 8 7 6 5 4 3 3 4 5 6 8 6 2 7 12 16 15 13 11 10 9 8 7
14 15 14 16 13 13 14 15 13 13 13 11 10 10 8 7 8 9 12 9 7 6 5 5 5 4 5 3 4 6 6 5 1 8 11 16 15 13 11 9 9 8 8
13 12 14 13 10 10 9 11 9 9 10 9 9 8 5 5 7 9 8 8 6 6 3 4 4 3 2 0 2 4 4 4 3 8 13 14 13 12 10 9 9 9 9
12 12 12 13 9 8 8 7 7 7 7 7 8 5 5 2 3 5 5 3 3 2 2 1 1 1 2 1 2 3 4 3 3 6 11 13 12 11 9 8 8 9 9
10 11 10 11 9 8 5 3 5 5 7 9 8 5 5 3 3 4 3 2 2 2 1 1 1 1 1 1 2 1 2 3 2 3 8 11 11 10 9 9 9 10 10
10 10 11 11 10 8 6 4 4 6 7 8 7 6 4 6 4 3 2 2 2 2 2 1 1 1 0 1 2 2 2 3 2 1 4 8 9 9 9 9 9 10 10
12 11 11 11 10 9 8 6 5 5 7 6 7 7 6 6 4 2 2 2 1 3 3 1 1 0 1 1 1 1 1 2 2 2 2 5 8 9 10 11 10 11 11
10 10 10 11 11 9 6 4 4 5 6 6 8 7 7 6 3 1 2 3 1 1 2 2 1 0 1 1 1 1 1 2 3 5 3 3 5 6 10 12 11 12 12
10 9 8 9 11 9 7 4 4 4 4 6 8 8 7 5 3 3 3 3 1 1 2 2 3 2 1 1 2 2 2 3 2 3 2 3 4 5 8 10 12 12 12
11 9 8 10 10 9 6 4 3 4 4 5 6 7 7 6 3 2 5 2 1 3 3 3 2 1 1 1 4 1 2 2 2 1 1 2 3 4 5 7 9 10 12
12 11 10 11 10 8 6 6 5 5 5 4 5 8 7 6 5 1 3 3 2 4 3 3 2 1 0 1 2 2 3 3 3 2 0 0 0 1 3 6 6 5 8
13 11 11 11 11 9 7 5 5 6 5 5 4 7 7 6 6 5 2 3 3 3 3 2 1 2 1 2 2 2 1 2 0 3 2 2 1 0 1 4 6 6 5
14 13 12 11 11 10 9 6 5 5 3 5 6 5 5 6 5 3 3 2 2 3 3 1 1 2 2 1 2 2 2 2 0 2 2 2 1 0 1 2 4 6 6
14 13 11 11 11 10 10 8 9 7 6 7 6 6 6 6 6 5 4 2 1 2 3 2 2 1 1 1 1 1 2 2 1 1 1 2 3 2 1 1 1 3 5
15 13 12 12 11 10 9 9 9 7 6 6 6 8 7 5 5 6 5 4 2 2 3 3 2 2 2 3 2 1 1 1 2 1 0 1 2 2 3 2 1 0 2
14 14 14 12 11 11 10 9 8 8 7 7 8 8 6 5 5 6 6 4 3 2 3 3 2 2 1 3 4 3 2 1 2 1 2 2 1 1 2 2 1 0 1
Wind_Direction
126 128 128 127 127 127 126 122 119 117 113 109 106 103 99 94 91 89 88 88 89 90 89 87 84 81 79 77 75 75 78 82 87 90 90 86 81 79 81 96 106 95 98
124 128 128 127 128 127 125 123 121 119 117 113 110 106 103 99 96 93 91 91 91 90 90 87 86 84 83 80 79 80 84 91 99 104 103 92 81 77 78 82 92 100 101
123 128 129 127 127 126 124 124 123 120 118 115 112 109 106 102 99 96 93 93 92 91 90 88 87 86 84 82 82 82 86 93 109 125 124 104 91 82 84 89 95 99 101
126 134 131 129 127 126 124 123 123 122 120 118 116 112 109 105 101 98 95 95 94 92 91 89 88 87 85 82 81 78 74 79 106 174 152 107 97 90 90 94 96 98 101
128 129 129 132 129 127 125 124 124 124 123 121 118 115 111 108 103 100 98 97 96 94 93 92 90 88 84 81 75 63 35 3 320 279 103 98 97 99 96 98 99 100 102
129 129 133 133 131 129 128 127 127 127 127 125 121 119 115 110 106 103 100 99 98 98 97 95 94 90 86 80 66 36 1 337 318 77 107 106 106 105 101 101 101 101 103
133 131 135 135 133 132 131 131 131 131 129 127 124 121 117 113 109 106 104 102 102 101 101 99 97 94 88 81 58 10 344 328 309 96 103 104 111 111 106 105 105 105 105
133 133 135 136 136 135 136 136 136 135 132 129 127 123 120 119 117 114 110 106 104 105 105 103 101 100 93 83 43 345 334 325 353 91 108 114 120 117 114 112 112 110 110
133 132 140 141 139 139 139 140 141 139 137 136 134 132 131 130 129 125 119 114 111 109 110 111 111 111 110 101 15 319 317 318 325 108 112 121 127 124 122 121 119 118 118
133 138 146 146 146 146 145 145 144 144 143 143 144 146 147 146 144 141 135 126 122 119 121 123 129 138 152 189 257 290 301 309 310 99 111 128 132 132 132 132 130 128 127
137 143 153 147 152 154 151 149 150 150 151 154 158 163 167 169 160 155 135 135 136 138 143 151 170 190 218 228 244 270 286 286 70 100 113 136 139 139 140 143 143 143 141
141 149 150 150 154 158 151 150 158 160 158 172 164 173 185 171 157 140 138 144 149 156 170 185 203 222 234 228 241 252 273 292 88 115 126 144 144 144 147 152 156 157 156
147 151 148 144 148 143 131 154 154 147 153 168 159 169 161 151 141 132 146 153 169 175 185 183 204 235 258 301 284 265 303 328 34 112 135 147 146 146 152 160 168 170 169
154 148 145 142 140 126 141 143 139 144 153 144 145 156 132 115 102 112 133 141 159 157 163 180 236 306 326 1 302 319 343 358 44 103 142 150 151 154 162 171 179 181 181
153 144 139 139 130 122 120 134 138 133 139 133 131 121 129 126 101 106 110 125 127 123 114 49 332 290 282 335 317 343 2 352 16 103 144 156 161 167 175 182 188 189 188
149 137 134 136 132 126 121 107 101 111 115 121 124 124 118 108 103 119 145 142 149 145 140 200 245 249 38 14 316 5 347 337 359 24 149 158 169 182 188 192 197 194 193
148 142 141 142 141 138 138 145 133 136 132 124 119 120 113 109 125 153 153 144 117 143 141 152 56 253 202 211 206 271 277 304 325 315 253 175 175 191 202 201 200 199 199
147 145 155 153 143 140 135 136 132 135 128 132 132 129 123 125 144 189 113 90 42 127 131 136 125 30 6 11 313 280 225 213 240 243 235 184 171 191 202 207 206 204 204
154 151 158 137 138 139 134 128 123 118 130 139 137 135 135 143 145 111 89 78 293 102 81 59 74 37 10 5 274 221 238 202 214 238 211 187 171 176 184 196 206 206 205
152 157 157 140 139 139 138 134 132 141 141 138 129 135 148 152 128 110 121 95 28 76 71 69 72 59 304 326 306 250 234 207 184 139 264 188 172 182 168 167 193 207 210
157 163 161 148 147 146 149 154 159 162 158 143 139 145 156 149 132 87 104 123 90 86 74 62 21 259 212 14 304 273 209 185 152 142 209 49 177 194 151 162 173 189 194
159 162 163 155 158 157 155 165 167 160 161 146 136 145 159 156 158 157 129 147 113 115 97 86 41 338 324 94 326 309 230 134 189 146 155 173 120 8 246 189 173 181 196
165 169 171 163 162 163 160 171 161 144 156 144 145 159 167 162 146 108 126 119 146 155 130 109 24 28 359 359 48 1 359 42 111 135 146 111 114 191 285 247 189 177 193
170 170 166 164 165 166 169 174 167 171 176 166 164 158 165 168 156 156 152 140 109 107 133 180 108 322 293 306 139 109 75 68 348 24 227 143 188 185 219 312 303 200 179
169 169 167 165 168 170 179 178 180 177 175 163 155 150 164 165 172 172 165 162 162 130 117 95 97 3 342 350 351 68 113 193 238 249 251 246 240 185 170 184 293 292 144
166 166 166 166 171 174 182 177 187 181 176 162 159 156 173 168 180 177 171 168 181 163 145 140 146 153 43 15 350 347 348 344 328 336 322 290 272 212 166 146 205 242 151
Height
1511 1515 1519 1522 1525 1528 1530 1532 1535 1536 1538 1539 1540 1541 1542 1543 1544 1545 1546 1547 1548 1549 1550 1551 1552 1552 1553 1553 1554 1555 1556 1557 1557 1558 1559 1559 1560 1561 1562 1563 1564 1565 1566
1509 1515 1519 1523 1526 1529 1531 1534 1536 1538 1539 1541 1542 1543 1544 1545 1546 1547 1548 1549 1550 1551 1552 1553 1553 1554 1555 1555 1556 1557 1558 1558 1559 1560 1561 1562 1562 1563 1564 1565 1567 1567 1569
1510 1515 1520 1524 1527 1530 1532 1535 1537 1539 1541 1542 1544 1545 1546 1547 1548 1549 1550 1551 1552 1553 1554 1555 1555 1556 1557 1557 1558 1559 1560 1561 1562 1562 1563 1564 1565 1566 1567 1568 1569 1570 1571
1511 1516 1520 1524 1528 1531 1533 1536 1538 1540 1542 1544 1545 1547 1548 1549 1550 1551 1552 1553 1554 1555 1556 1556 1557 1558 1559 1560 1561 1562 1562 1563 1564 1565 1566 1567 1567 1568 1569 1570 1571 1572 1573
1513 1517 1521 1525 1529 1532 1534 1537 1539 1541 1543 1545 1547 1548 1550 1551 1552 1553 1554 1555 1556 1556 1557 1558 1559 1560 1561 1562 1563 1564 1565 1565 1566 1568 1569 1569 1569 1570 1571 1572 1573 1574 1575
1514 1518 1522 1526 1529 1533 1535 1538 1540 1542 1544 1546 1548 1550 1551 1552 1553 1554 1555 1556 1557 1558 1559 1560 1561 1562 1563 1564 1565 1566 1567 1568 1569 1570 1571 1571 1571 1572 1572 1573 1575 1576 1577
1516 1518 1522 1526 1530 1533 1536 1539 1541 1543 1545 1547 1549 1551 1552 1553 1555 1556 1557 1558 1559 1560 1561 1562 1562 1563 1564 1565 1566 1567 1568 1569 1570 1571 1571 1572 1572 1573 1574 1575 1576 1577 1579
1516 1518 1522 1527 1530 1534 1537 1540 1542 1544 1546 1548 1550 1552 1553 1555 1556 1557 1558 1559 1560 1561 1562 1563 1564 1565 1566 1567 1568 1569 1569 1569 1571 1572 1572 1572 1573 1574 1575 1576 1578 1579 1580
1517 1519 1522 1527 1531 1534 1537 1540 1543 1545 1547 1549 1551 1553 1554 1556 1557 1558 1559 1560 1561 1562 1563 1564 1565 1566 1567 1568 1568 1569 1570 1571 1571 1572 1571 1572 1573 1575 1576 1577 1579 1580 1581
1517 1520 1523 1528 1531 1534 1537 1541 1543 1546 1548 1550 1552 1554 1555 1557 1558 1559 1560 1561 1562 1563 1564 1565 1566 1567 1567 1568 1569 1570 1570 1571 1571 1571 1571 1572 1574 1575 1577 1578 1579 1581 1582
1518 1521 1525 1528 1532 1535 1538 1541 1544 1546 1548 1550 1553 1555 1556 1557 1559 1560 1561 1562 1563 1564 1564 1565 1566 1567 1568 1569 1569 1570 1571 1571 1571 1571 1571 1572 1574 1576 1577 1579 1580 1581 1583
1518 1522 1526 1529 1532 1536 1539 1541 1544 1546 1549 1551 1553 1555 1557 1559 1560 1561 1562 1563 1563 1564 1565 1565 1566 1567 1568 1569 1570 1570 1570 1571 1571 1571 1572 1574 1575 1576 1577 1579 1580 1581 1583
1517 1521 1525 1529 1533 1536 1539 1541 1544 1547 1549 1551 1554 1556 1558 1559 1561 1561 1562 1562 1563 1564 1564 1565 1566 1567 1568 1569 1569 1570 1570 1571 1571 1570 1571 1573 1575 1576 1577 1579 1580 1581 1583
1517 1520 1524 1529 1532 1536 1539 1542 1545 1547 1549 1552 1554 1556 1558 1560 1561 1561 1562 1562 1563 1564 1564 1565 1565 1566 1567 1568 1568 1569 1570 1570 1570 1570 1571 1573 1574 1575 1577 1578 1580 1581 1582
1515 1519 1524 1528 1532 1535 1538 1541 1545 1547 1549 1551 1554 1555 1557 1559 1560 1561 1561 1562 1562 1563 1563 1564 1564 1565 1566 1567 1567 1568 1569 1569 1570 1570 1571 1572 1573 1575 1576 1577 1579 1580 1581
1514 1518 1521 1526 1530 1534 1538 1541 1544 1546 1549 1551 1553 1555 1557 1558 1559 1560 1561 1561 1561 1562 1562 1563 1563 1564 1564 1565 1566 1567 1567 1568 1569 1569 1570 1571 1572 1573 1575 1576 1577 1579 1580
1512 1517 1521 1525 1529 1534 1537 1541 1544 1546 1549 1551 1552 1554 1555 1557 1558 1559 1560 1561 1561 1561 1562 1562 1562 1563 1564 1564 1565 1565 1566 1566 1567 1568 1569 1570 1570 1572 1573 1574 1576 1577 1578
1511 1516 1520 1524 1529 1533 1537 1540 1543 1546 1548 1550 1552 1553 1555 1556 1558 1559 1560 1560 1560 1561 1562 1562 1562 1562 1563 1563 1564 1565 1565 1566 1567 1567 1568 1569 1570 1571 1572 1573 1574 1575 1576
1510 1514 1520 1525 1528 1532 1536 1539 1542 1545 1548 1550 1551 1552 1554 1555 1557 1558 1558 1559 1560 1560 1561 1561 1561 1562 1562 1563 1563 1564 1565 1566 1566 1567 1568 1569 1569 1570 1570 1571 1572 1573 1574
1510 1515 1520 1524 1528 1531 1535 1538 1541 1545 1547 1549 1551 1552 1553 1555 1556 1557 1557 1558 1559 1559 1560 1560 1561 1561 1562 1562 1563 1564 1564 1565 1566 1567 1567 1568 1569 1569 1569 1570 1570 1571 1572
1510 1515 1519 1522 1526 1530 1533 1537 1540 1544 1546 1548 1550 1551 1553 1554 1555 1556 1557 1557 1558 1558 1559 1560 1560 1561 1562 1562 1563 1563 1564 1564 1565 1566 1566 1567 1567 1568 1568 1569 1569 1570 1570
1508 1512 1517 1521 1525 1529 1532 1536 1540 1543 1545 1548 1549 1550 1552 1553 1554 1556 1556 1557 1557 1558 1558 1559 1560 1560 1562 1562 1562 1562 1563 1565 1564 1565 1566 1566 1567 1567 1568 1568 1568 1568 1569
1506 1511 1515 1519 1523 1527 1531 1535 1539 1541 1544 1546 1548 1549 1551 1552 1553 1554 1555 1556 1557 1557 1558 1558 1559 1560 1561 1562 1562 1562 1563 1563 1564 1565 1565 1566 1566 1566 1566 1567 1567 1567 1568
1505 1510 1514 1518 1522 1526 1530 1533 1536 1539 1542 1545 1546 1547 1549 1551 1552 1553 1554 1555 1556 1557 1557 1558 1558 1559 1560 1561 1562 1562 1563 1563 1564 1565 1566 1565 1565 1565 1565 1566 1566 1566 1567
1504 1508 1512 1516 1520 1524 1528 1532 1535 1538 1541 1544 1545 1546 1548 1549 1550 1552 1553 1554 1555 1556 1556 1557 1557 1558 1559 1560 1561 1562 1562 1563 1563 1564 1565 1565 1565 1565 1564 1565 1565 1565 1565
1502 1507 1510 1514 1519 1522 1526 1530 1533 1537 1539 1541 1543 1544 1546 1548 1549 1550 1551 1552 1554 1554 1555 1556 1556 1557 1558 1558 1559 1560 1562 1562 1563 1563 1563 1564 1564 1564 1563 1563 1564 1564 1564